Simultaneous Nadir Overpasses (SNOs) Predictions

Prediction of SNOs between AQUA and TERRA Satellite Orbit:

Table of predicted SNOs for the next 14.0 days since TLE Epoch: 5/27/2023
Index Date (AQUA) Time (AQUA) Lat,Lon (AQUA) SZA (AQUA ) Date (TERRA) Time (TERRA) Lat,Lon (TERRA) SZA (TERRA ) Distance(km) Time Diff (sec)
1 06/03/2023 16:38:44 73.79, -72.29 51.37 06/03/2023 16:39:49 73.73, -69.44 51.30 88.96 65
2 06/03/2023 17:28:07 -73.76, 95.43 128.67 06/03/2023 17:29:13 -73.69, 98.15 128.74 84.83 66
3 06/03/2023 18:17:30 73.62, -96.63 51.19 06/03/2023 18:18:37 73.54, -94.52 51.10 67.12 67
4 06/03/2023 19:06:53 -73.59, 71.09 128.85 06/03/2023 19:08:00 -73.56, 73.18 128.89 65.87 67
5 06/03/2023 19:56:16 73.46,-120.98 51.02 06/03/2023 19:57:24 73.40,-119.48 50.96 47.95 68
6 06/03/2023 20:45:39 -73.43, 46.73 129.02 06/03/2023 20:46:48 -73.37, 48.11 129.08 44.04 69
7 06/03/2023 21:35:02 73.29,-145.34 50.84 06/03/2023 21:36:12 73.22,-144.55 50.76 26.71 70
8 06/03/2023 22:24:25 -73.26, 22.38 129.20 06/03/2023 22:25:36 -73.19, 23.05 129.28 23.08 71
9 06/03/2023 23:13:48 73.13,-169.70 50.66 06/03/2023 23:14:59 73.08,-169.50 50.61 8.21 71
10 06/04/2023 00:03:11 -73.10, -1.99 129.38 06/04/2023 00:04:23 -73.05, -1.91 129.42 5.68 72
11 06/04/2023 00:52:36 73.07, 165.72 50.59 06/04/2023 00:53:44 73.05, 165.75 50.58 2.01 68
12 06/04/2023 01:41:59 -73.04, -26.57 129.45 06/04/2023 01:43:08 -73.02, -26.65 129.46 2.92 69
13 06/04/2023 02:31:24 73.06, 141.03 50.58 06/04/2023 02:32:27 73.08, 141.11 50.59 3.37 63
14 06/04/2023 03:20:47 -73.03, -51.26 129.46 06/04/2023 03:21:51 -73.05, -51.29 129.44 2.25 64
15 06/04/2023 04:10:13 73.05, 116.34 50.56 06/04/2023 04:11:12 73.05, 116.37 50.55 1.07 59
16 06/04/2023 04:59:36 -73.02, -75.95 129.48 06/04/2023 05:00:36 -73.02, -76.03 129.48 2.72 60
17 06/04/2023 05:49:02 73.04, 91.65 50.54 06/04/2023 05:49:57 73.02, 91.63 50.52 2.97 55
18 06/04/2023 06:38:25 -73.01,-100.64 129.49 06/04/2023 06:39:20 -73.04,-100.67 129.47 3.43 55
19 06/04/2023 07:27:51 73.03, 66.97 50.53 06/04/2023 07:28:41 73.04, 66.99 50.53 1.00 50
20 06/04/2023 08:17:14 -73.01,-125.32 129.51 06/04/2023 08:18:05 -73.01,-125.41 129.50 3.04 51
21 06/04/2023 09:06:40 73.03, 42.28 50.51 06/04/2023 09:07:26 73.01, 42.25 50.50 2.03 46
22 06/04/2023 09:56:04 -73.05,-150.12 129.47 06/04/2023 09:56:49 -73.04,-150.05 129.49 2.54 45
23 06/04/2023 10:45:29 73.02, 17.59 50.50 06/04/2023 10:46:10 73.04, 17.61 50.51 1.85 41
24 06/04/2023 11:34:52 -72.99,-174.70 129.54 06/04/2023 11:35:34 -73.01,-174.79 129.52 3.71 42
25 06/04/2023 12:24:18 73.01, -7.10 50.48 06/04/2023 12:24:55 73.01, -7.14 50.47 1.41 37
26 06/04/2023 13:13:42 -73.03, 160.51 129.51 06/04/2023 13:14:18 -73.03, 160.57 129.51 1.93 36
27 06/04/2023 14:03:07 73.00, -31.79 50.46 06/04/2023 14:03:39 73.03, -31.78 50.49 2.88 32
28 06/04/2023 14:52:31 -73.03, 135.82 129.52 06/04/2023 14:53:03 -73.00, 135.82 129.55 2.65 32
29 06/04/2023 15:41:56 73.00, -56.48 50.45 06/04/2023 15:42:24 73.00, -56.52 50.45 1.54 28
30 06/04/2023 16:31:20 -73.02, 111.13 129.54 06/04/2023 16:31:47 -73.03, 111.18 129.53 1.92 27
31 06/04/2023 17:20:45 72.99, -81.16 50.43 06/04/2023 17:21:09 72.97, -81.26 50.41 3.81 24
32 06/04/2023 18:10:09 -73.01, 86.44 129.55 06/04/2023 18:10:32 -73.00, 86.44 129.57 1.53 23
33 06/04/2023 18:59:34 72.98,-105.85 50.42 06/04/2023 18:59:53 72.99,-105.90 50.43 2.26 19
34 06/04/2023 19:48:58 -73.00, 61.75 129.57 06/04/2023 19:49:16 -73.02, 61.80 129.55 2.50 18
35 06/04/2023 20:38:24 73.03,-130.65 50.45 06/04/2023 20:38:37 73.02,-130.54 50.45 3.45 13
36 06/04/2023 21:27:47 -73.00, 37.07 129.58 06/04/2023 21:28:01 -72.99, 37.06 129.59 0.47 14
37 06/04/2023 22:17:12 72.96,-155.23 50.39 06/04/2023 22:17:22 72.99,-155.29 50.41 3.18 10
38 06/04/2023 23:06:36 -72.99, 12.38 129.60 06/04/2023 23:06:45 -73.02, 12.42 129.57 3.36 9
39 06/04/2023 23:56:02 73.01, 179.98 50.42 06/04/2023 23:56:06 73.01,-179.93 50.42 3.14 4
40 06/05/2023 00:45:25 -72.98, -12.31 129.61 06/05/2023 00:45:30 -72.99, -12.32 129.61 0.79 5
41 06/05/2023 01:34:51 73.00, 155.29 50.41 06/05/2023 01:34:51 72.98, 155.33 50.39 2.65 0
42 06/05/2023 02:24:14 -72.97, -37.00 129.63 06/05/2023 02:24:15 -72.96, -37.07 129.65 2.77 1
43 06/05/2023 03:13:40 72.99, 130.60 50.39 06/05/2023 03:13:35 73.01, 130.69 50.40 3.17 5
44 06/05/2023 04:03:03 -72.96, -61.69 129.65 06/05/2023 04:02:59 -72.98, -61.71 129.63 1.84 4
45 06/05/2023 04:52:29 72.99, 105.91 50.38 06/05/2023 04:52:20 72.98, 105.95 50.37 1.71 9
46 06/05/2023 05:41:52 -72.96, -86.38 129.66 06/05/2023 05:41:44 -72.95, -86.45 129.67 2.43 8
47 06/05/2023 06:31:18 72.98, 81.22 50.36 06/05/2023 06:31:04 73.00, 81.31 50.38 3.52 14
48 06/05/2023 07:20:41 -72.95,-111.07 129.68 06/05/2023 07:20:28 -72.97,-111.09 129.65 2.90 13
49 06/05/2023 08:10:07 72.97, 56.53 50.35 06/05/2023 08:09:49 72.97, 56.56 50.34 1.00 18
50 06/05/2023 08:59:30 -72.94,-135.75 129.69 06/05/2023 08:59:13 -72.95,-135.83 129.69 2.53 17
51 06/05/2023 09:48:56 72.96, 31.84 50.33 06/05/2023 09:48:34 72.94, 31.82 50.31 2.85 22
52 06/05/2023 10:38:20 -72.99,-160.55 129.65 06/05/2023 10:37:57 -72.97,-160.47 129.67 3.20 23
53 06/05/2023 11:27:45 72.96, 7.16 50.32 06/05/2023 11:27:18 72.96, 7.18 50.32 1.06 27
54 06/05/2023 12:17:08 -72.93, 174.87 129.72 06/05/2023 12:16:42 -72.94, 174.79 129.71 3.02 26
55 06/05/2023 13:06:34 72.95, -17.53 50.30 06/05/2023 13:06:03 72.93, -17.56 50.29 2.02 31
56 06/05/2023 13:55:58 -72.97, 150.07 129.68 06/05/2023 13:55:26 -72.96, 150.15 129.69 2.54 32
57 06/05/2023 14:45:23 72.94, -42.22 50.29 06/05/2023 14:44:47 72.96, -42.20 50.30 1.78 36
58 06/05/2023 15:34:47 -72.96, 125.38 129.70 06/05/2023 15:34:11 -72.93, 125.40 129.73 3.47 36
59 06/05/2023 16:24:12 72.93, -66.91 50.27 06/05/2023 16:23:32 72.93, -66.95 50.26 1.42 40
60 06/05/2023 17:13:36 -72.96, 100.70 129.71 06/05/2023 17:12:55 -72.96, 100.76 129.71 2.18 41
61 06/05/2023 18:03:01 72.93, -91.60 50.26 06/05/2023 18:02:16 72.95, -91.59 50.28 2.65 45
62 06/05/2023 18:52:25 -72.95, 76.01 129.73 06/05/2023 18:51:40 -72.93, 76.02 129.75 2.47 45
63 06/05/2023 19:41:50 72.92,-116.29 50.24 06/05/2023 19:41:01 72.92,-116.33 50.24 1.35 49
64 06/05/2023 20:31:14 -72.94, 51.32 129.74 06/05/2023 20:30:24 -72.95, 51.38 129.73 2.26 50
65 06/05/2023 21:20:39 72.91,-140.98 50.23 06/05/2023 21:19:45 72.94,-140.97 50.26 3.55 54
66 06/05/2023 22:10:03 -72.93, 26.63 129.76 06/05/2023 22:09:09 -72.92, 26.64 129.77 1.48 54
67 06/05/2023 22:59:28 72.90,-165.67 50.21 06/05/2023 22:58:30 72.91,-165.72 50.22 1.84 58
68 06/05/2023 23:48:52 -72.93, 1.94 129.77 06/05/2023 23:47:53 -72.95, 2.00 129.75 2.72 59
69 06/06/2023 00:38:17 72.90, 169.64 50.20 06/06/2023 00:37:15 72.88, 169.54 50.19 3.59 62
70 06/06/2023 01:27:41 -72.92, -22.75 129.79 06/06/2023 01:26:38 -72.92, -22.75 129.79 0.51 63
71 06/06/2023 02:17:06 72.89, 144.95 50.18 06/06/2023 02:15:59 72.91, 144.90 50.20 2.57 67
72 06/06/2023 03:06:30 -72.91, -47.44 129.80 06/06/2023 03:05:23 -72.89, -47.49 129.83 3.38 67
73 06/06/2023 03:55:56 72.94, 120.16 50.22 06/06/2023 03:54:43 72.93, 120.26 50.22 3.37 73
74 06/06/2023 04:45:19 -72.91, -72.13 129.82 06/06/2023 04:44:07 -72.91, -72.13 129.81 0.44 72
75 06/06/2023 05:34:41 72.77, 95.78 50.05 06/06/2023 05:33:30 72.74, 95.21 50.02 19.01 71
76 06/06/2023 06:24:05 -72.79, -96.61 129.94 06/06/2023 06:22:53 -72.77, -97.07 129.95 15.37 72
77 06/06/2023 07:13:27 72.60, 71.40 49.87 06/06/2023 07:12:17 72.60, 70.27 49.88 37.45 70
78 06/06/2023 08:02:51 -72.63,-121.00 130.11 06/06/2023 08:01:40 -72.64,-122.02 130.10 33.86 71
79 06/06/2023 08:52:13 72.44, 47.01 49.70 06/06/2023 08:51:05 72.41, 45.24 49.68 59.58 68
80 06/06/2023 09:41:37 -72.46,-145.39 130.29 06/06/2023 09:40:28 -72.45,-147.05 130.29 55.82 69
81 06/06/2023 10:30:59 72.27, 22.61 49.52 06/06/2023 10:29:53 72.22, 20.21 49.49 81.77 66
82 06/06/2023 11:20:22 -72.24,-169.68 130.51 06/06/2023 11:19:16 -72.26,-172.08 130.49 81.20 66



Historial Predications of SNOs between AQUA and TERRA
